Location: Casco Volunteer Fire Department
(44.5576°N, 87.6146°W)
Time: 04:07:00
(UTC+00:00)

Cosmos 1633 Rocket - Pass Details

Date: 22 January 2026
Orbit: 600 x 616 km, 82.5° (Epoch: 10 February)

Event Time Altitude Azimuth Distance (km) Brightness Sun altitude
Rises 12:06:11 0° 209° (SSW) 2,850 6.3 -12.9°
Reaches altitude 10° 12:08:32 10° 218° (SW) 1,949 5.4 -12.5°
Maximum altitude 12:12:29 35° 285° (WNW) 991 3.6 -11.8°
Drops below altitude 10° 12:16:27 10° 351° (N) 1,956 5.4 -11.1°
Sets 12:18:50 0° 1° (N) 2,862 6.3 -10.7°
